EW2919 Weather Reports


time (UTC)temp
F
wind
direction
speed
knots
gust
knots
rain 1hr
in
rain 24hr
in
rain mn
in
humidity
%
barometer
mb
20260906111522 71 343 0.0 1.7 0.00 0.07 0.00 95 1014.1
20260906110026 71 28 0.0 1.7 0.00 0.07 0.00 96 1013.8
20260906104512 71 46 0.0 1.7 0.00 0.07 0.00 96 1013.8
20260906103620 71 56 0.0 1.7 0.00 0.07 0.00 96 1013.6
20260906103603 71 61 0.0 1.7 0.00 0.07 0.00 96 1013.4
20260906100026 71 299 0.0 1.7 0.00 0.07 0.00 96 1013.3
20260906094534 71 46 0.0 0.9 0.00 0.07 0.00 96 1013.1
20260906093010 71 46 0.0 1.7 0.00 0.07 0.00 96 1013.1
20260906091524 71 360 0.0 1.7 0.00 0.07 0.00 96 1012.9
20260906090021 71 315 0.0 1.7 0.00 0.07 0.00 96 1012.8
20260906084530 71 42 0.0 2.6 0.00 0.07 0.00 96 1012.7
20260906083039 71 37 0.0 1.7 0.00 0.07 0.00 96 1012.5
20260906081529 71 84 0.0 1.7 0.00 0.07 0.00 96 1012.2
20260906080016 71 22 0.0 1.7 0.00 0.07 0.00 96 1012.3
20260906074524 70 29 0.0 1.7 0.00 0.07 0.00 96 1012.3
20260906073003 70 40 0.0 0.9 0.00 0.07 0.00 95 1012.4
20260906071504 70 40 0.0 0.0 0.00 0.07 0.00 95 1012.5
20260906070003 70 40 0.0 0.0 0.00 0.07 0.00 95 1012.5
20260906064506 70 40 0.0 0.0 0.00 0.07 0.00 95 1012.7
20260906063005 70 40 0.0 0.0 0.00 0.07 0.00 95 1012.6
20260906061508 71 40 0.0 0.0 0.00 0.07 0.00 95 1012.6
20260906060008 71 40 0.0 0.0 0.00 0.07 0.00 95 1012.7
20260906054508 71 40 0.0 0.0 0.00 0.07 0.00 95 1012.8
20260906053030 71 40 0.0 0.0 0.00 0.07 0.00 94 1012.8
20260906051532 71 40 0.0 0.0 0.00 0.07 0.00 94 1012.8
20260906050042 71 40 0.0 1.7 0.00 0.07 0.00 94 1013.0
20260906044516 71 40 0.0 0.0 0.00 0.07 0.00 94 1013.3
20260906043025 71 40 0.0 0.9 0.00 0.07 0.00 94 1013.2
20260906041529 71 40 0.0 0.9 0.00 0.07 0.00 93 1013.3
20260906040037 71 40 0.0 1.7 0.00 0.07 0.00 93 1013.3
20260906034514 71 40 0.0 1.7 0.00 0.07 0.07 92 1013.5
20260906033024 72 40 0.0 1.7 0.00 0.07 0.07 92 1013.4
20260906031529 72 40 0.0 1.7 0.00 0.07 0.07 92 1013.4
20260906030032 72 40 0.0 1.7 0.00 0.07 0.07 91 1013.2
20260906024531 72 40 0.0 1.7 0.00 0.07 0.07 91 1013.3
20260906023024 73 327 0.0 1.7 0.00 0.07 0.07 91 1013.1
20260906021526 72 325 0.9 2.6 0.00 0.07 0.07 91 1012.7
20260906020031 73 325 0.0 1.7 0.00 0.07 0.07 90 1012.4
20260906014534 73 325 0.0 1.7 0.00 0.07 0.07 91 1012.3
20260906013033 73 325 0.0 1.7 0.00 0.07 0.07 90 1012.2
20260906011511 74 325 0.0 1.7 0.00 0.07 0.07 90 1012.2
20260906010004 74 325 0.0 0.9 0.00 0.07 0.07 89 1012.2
20260906004508 74 325 0.0 1.7 0.00 0.07 0.07 88 1011.9
20260906003008 75 325 0.0 1.7 0.00 0.07 0.07 87 1011.9
20260906001508 76 325 0.0 1.7 0.00 0.07 0.07 86 1011.9
20260906000019 77 325 0.0 1.7 0.00 0.07 0.07 85 1011.8
20260905234504 77 325 0.0 1.7 0.00 0.07 0.07 84 1011.5
20260905233020 78 325 0.0 0.9 0.00 0.07 0.07 84 1011.4
20260905231511 79 325 0.0 1.7 0.00 0.13 0.07 83 1011.3
20260905230011 79 325 0.0 1.7 0.00 0.13 0.07 83 1011.2
20260905224504 79 302 0.0 2.6 0.00 0.13 0.07 81 1011.2
20260905223008 79 182 0.0 1.7 0.00 0.13 0.07 82 1011.3
20260905221510 80 220 0.0 1.7 0.00 0.30 0.07 84 1011.6
20260905220011 79 209 0.0 1.7 0.00 0.61 0.07 87 1011.6
20260905214514 79 209 0.0 1.7 0.00 0.85 0.07 88 1011.8
20260905213004 79 192 0.0 1.7 0.00 0.85 0.07 87 1011.8
20260905211512 79 261 0.0 2.6 0.00 0.85 0.07 86 1011.8
20260905210014 77 297 0.0 1.7 0.00 0.85 0.07 89 1011.9
20260905204514 76 307 0.9 1.7 0.00 0.85 0.07 93 1011.8
20260905203015 75 351 0.0 1.7 0.00 0.85 0.07 94 1011.6
20260905201508 75 264 0.0 1.7 0.00 0.85 0.07 93 1011.8
20260905200044 74 262 0.9 1.7 0.01 0.85 0.07 93 1012.2
20260905194521 74 254 0.0 1.7 0.01 0.85 0.07 92 1011.8
20260905193026 74 139 0.0 1.7 0.06 0.85 0.07 92 1011.6
20260905191515 75 272 0.0 1.7 0.06 0.85 0.07 91 1011.2
20260905190014 75 275 0.0 1.7 0.05 0.84 0.06 88 1011.6
20260905184523 78 60 0.9 3.5 0.05 0.84 0.06 81 1012.3
20260905183024 81 330 0.9 7.0 0.00 0.79 0.01 68 1012.5
20260905181523 86 69 4.3 12.2 0.00 0.79 0.01 60 1012.4
20260905180018 94 50 0.9 2.6 0.00 0.79 0.01 55 1012.0
20260905174528 94 211 0.9 2.6 0.00 0.79 0.01 56 1011.9
20260905173017 94 137 0.9 3.5 0.00 0.79 0.01 57 1012.0
20260905171517 93 50 0.0 2.6 0.00 0.79 0.01 58 1012.5
20260905170020 93 315 0.9 3.5 0.00 0.79 0.01 53 1013.1
20260905164518 94 304 0.9 4.3 0.00 0.79 0.01 55 1013.3
20260905163021 93 278 1.7 3.5 0.00 0.79 0.01 57 1013.4
20260905161520 92 300 0.0 6.1 0.00 0.79 0.01 59 1013.5
20260905160039 92 42 0.0 4.3 0.00 0.79 0.01 62 1013.6
20260905154525 90 275 0.9 3.5 0.00 0.79 0.01 63 1013.9
20260905153018 89 109 0.9 2.6 0.00 0.79 0.01 67 1013.9
20260905151520 88 99 0.0 2.6 0.01 0.79 0.01 65 1014.0
20260905150025 86 326 0.9 2.6 0.01 0.79 0.01 69 1014.2
20260905144530 84 153 0.0 1.7 0.01 0.79 0.01 78 1014.2
20260905143020 81 150 0.9 1.7 0.01 0.79 0.01 89 1014.1
20260905141536 78 210 0.9 2.6 0.00 0.78 0.00 91 1014.1
20260905140023 76 254 0.0 1.7 0.00 0.78 0.00 97 1014.2
20260905134513 75 320 0.0 1.7 0.00 0.78 0.00 97 1014.1
20260905133013 74 322 0.0 1.7 0.00 0.78 0.00 97 1014.0
20260905131535 73 322 0.0 1.7 0.00 0.78 0.00 97 1014.1
20260905130027 73 286 0.0 1.7 0.00 0.78 0.00 97 1014.2
20260905124506 72 286 0.0 1.7 0.00 0.78 0.00 97 1014.2
20260905123011 71 286 0.0 0.0 0.00 0.78 0.00 97 1014.3
20260905121516 71 286 0.0 0.0 0.00 0.78 0.00 97 1014.2
20260905120023 70 286 0.0 0.0 0.00 0.78 0.00 97 1014.0
20260905114545 70 286 0.0 1.7 0.00 0.78 0.00 96 1013.9
20260905113007 70 286 0.0 0.0 0.00 0.78 0.00 96 1013.7